Notices

What's New in latest Release from April 7th, 2021:

- Updated Glossary, including Speed of Maximum Gust, and Total Hourly Precipitation

- Updated national and regional climate services offices contacts and prices information

- Addition of station inventory lists for 1981-2010, 1971-2000, and 1961-1990 Normals.

If you haven't already, please take our survey and provide feedback about our website: https://eccc.sondage-survey.ca/f/LanguageSelection.aspx?s=442ca660-fcf1-47c0-95a9-59707d6fd709

Hourly Data Report for March 10, 2020

MIRAMICHI RCS
NEW BRUNSWICK
Current Station Operator: ECCC - MSC

47°00'34.000" N
65°27'54.000" W
33.00 m
8100989
71744
ACQ

Download Data

Hourly Data (March 2020)
Hourly Data Report for March 10, 2020
TIME
LST
Temp Definition
°C
Dew Point Definition
°C
Rel Hum Definition
%
Precip. Amount Definition
mm

Wind Dir Definition
10's deg

Wind Spd Definition
km/h
Visibility Definition
km
Stn Press Definition
kPa
Hmdx Definition


Wind Chill Definition


Weather Definition


00:00 -7.9 -9.6 87 LegendMM 9 11   102.51   -13 LegendNANA
01:00 -8.1 -9.9 87 LegendMM 9 9   102.45   -13 LegendNANA
02:00 -8.3 -9.9 88 LegendMM 8 9   102.39   -13 LegendNANA
03:00 -8.1 -9.8 87 LegendMM 11 8   102.34   -12 LegendNANA
04:00 -8.2 -9.9 87 LegendMM 8 13   102.23   -14 LegendNANA
05:00 -8.1 -9.8 88 LegendMM 8 13   102.14   -14 LegendNANA
06:00 -8.1 -9.7 88 LegendMM 8 12   102.05   -14 LegendNANA
07:00 -8.0 -9.7 87 LegendMM 9 14   102.02   -14 LegendNANA
08:00 -8.1 -10.2 85 LegendMM 10 19   102.04   -15 LegendNANA
09:00 -7.9 -9.8 86 LegendMM 9 18   101.93   -15 LegendNANA
10:00 -7.5 -9.7 85 LegendMM 9 20   101.78   -15 LegendNANA
11:00 -7.4 -9.8 83 LegendMM 10 22   101.69   -15 LegendNANA
12:00 -6.7 -9.2 83 LegendMM 10 16   101.60   -13 LegendNANA
13:00 -5.9 -8.0 85 LegendMM 10 10   101.47   -10 LegendNANA
14:00 -5.0 -7.2 85 LegendMM 8 15   101.19   -11 LegendNANA
15:00 -4.8 -6.8 86 LegendMM 8 9   101.09   -9 LegendNANA
16:00 -5.0 -6.5 90 LegendMM 4 8   100.96   -9 LegendNANA
17:00 -5.1 -6.5 91 LegendMM 5 10   100.84   -9 LegendNANA
18:00 -4.9 -6.0 92 LegendMM 4 6   100.78   -8 LegendNANA
19:00 -4.6 -5.3 95 LegendMM 4 8   100.68   -8 LegendNANA
20:00 -4.6 -5.2 95 LegendMM 7 9   100.56   -8 LegendNANA
21:00 -4.3 -4.9 96 LegendMM 5 5   100.51   -6 LegendNANA
22:00 -4.3 -4.9 96 LegendMM 2 4   100.44   -6 LegendNANA
23:00 -3.9 -4.5 96 LegendMM 1 5   100.39   -6 LegendNANA

Notes on Data Quality.

Legend

  • E = Estimated
  • M = Missing
  • NA = Not Available*
  • [empty] = Indicates an unobserved value
Date modified: